RESURS-P 2

Last updated on Wed Feb 12 2025 00:02:27 GMT+0000 (Coordinated Universal Time)

1 40360U 14087A 25042.79256236 .13998004 24186-5 12028-3 0 9992 2 40360 97.0926 143.0833 0008357 269.3569 218.5177 16.51917227568846

Satellite not in orbit

RESURS-P 2